Location: Bartshausen
(51.8454°N, 9.8167°E)
Time: 11:07:58
(UTC+00:00)

Cosmos 2151 Rocket - Pass Details

Date: 08 November 2025
Orbit: 612 x 636 km, 82.5° (Epoch: 09 December)

Event Time Altitude Azimuth Distance (km) Brightness Sun altitude
Rises 05:24:18 0° 351° (N) 2,951 6.8 -10.0°
Reaches altitude 10° 05:26:35 10° 354° (N) 2,037 6.0 -9.7°
Maximum altitude 05:31:05 64° 76° (ENE) 708 4.1 -9.0°
Drops below altitude 10° 05:35:31 10° 159° (SSE) 2,012 6.7 -8.4°
Sets 05:37:45 0° 162° (SSE) 2,912 7.5 -8.0°
